Dothan, AL

7:48 PM CST on February 20, 2018 (GMT -0600)
Dothan Regional

Weather History for KDHN - March, 2014

Change the Weather History Date:

Friday, March 14, 2014

  Actual Average Record
Temperature  
Mean Temperature 54 °F 58 °F  
Max Temperature 69 °F 71 °F 85 °F (1964)
Min Temperature 38 °F 46 °F 32 °F (1950)
Degree Days  
Heating Degree Days 11 7  
Month to date heating degree days 152 115  
Since 1 July heating degree days 1817 1674  
Cooling Degree Days 0 0  
Month to date cooling degree days 1 13  
Year to date cooling degree days 10 23  
Growing Degree Days 3 (Base 50)    
Moisture  
Dew Point 31 °F    
Average Humidity 48    
Maximum Humidity 86    
Minimum Humidity 21    
Precipitation  
Precipitation 0.00 in 0.17 in 0.96 in (1940)
Month to date precipitation 0.41 2.31  
Year to date precipitation 8.14 11.71  
Sea Level Pressure  
Sea Level Pressure 30.26 in    
Wind  
Wind Speed 6 mph (SSE)    
Max Wind Speed 12 mph    
Max Gust Speed 17 mph    
Visibility 10 miles    
Events      
T = Trace of Precipitation, MM = Missing Value Source: NWS Daily Summary

Daily Weather History Graph

Daily Weather History Graph

Search for Another Location

Airport or City:

Trip Planner

Search our weather history database for the weather conditions in past years. The results will help you decide how hot, cold, wet, or windy it might be!

Date:

Astronomy

Mar. 14, 2014 Rise Set
Actual Time 6:53 AM CDT 6:49 PM CDT
Civil Twilight 6:28 AM CDT 7:13 PM CDT
Nautical Twilight 6:00 AM CDT 7:41 PM CDT
Astronomical Twilight 5:32 AM CDT 8:09 PM CDT
Moon 5:14 PM CDT (3/14) 5:27 AM CDT (3/14)
Length of Visible Light 12h 44m
Length of Day
11h 56m
Waxing Gibbous, 96% of the Moon is Illuminated
Mar 14
Waxing Gibbous
Mar 16
Full
Mar 23
Last Quarter
Mar 30
New
Apr 7
First Quarter

Hourly Weather History & Observations

Time (CDT) Temp. Windchill Dew Point Humidity Pressure Visibility Wind Dir Wind Speed Gust Speed Precip Events Conditions
12:53 AM 41.0 °F 39.0 °F 34.0 °F 76% 30.28 in 10.0 mi NE 3.5 mph - N/A   Clear
1:53 AM 39.9 °F 37.8 °F 33.1 °F 77% 30.28 in 10.0 mi NNE 3.5 mph - N/A   Clear
2:53 AM 37.9 °F 33.5 °F 34.0 °F 86% 30.27 in 10.0 mi NE 5.8 mph - N/A   Clear
3:53 AM 37.9 °F 34.4 °F 34.0 °F 86% 30.27 in 10.0 mi ENE 4.6 mph - N/A   Clear
4:53 AM 39.0 °F 35.7 °F 32.0 °F 76% 30.28 in 10.0 mi East 4.6 mph - N/A   Clear
5:53 AM 42.1 °F 37.7 °F 28.0 °F 58% 30.29 in 10.0 mi East 6.9 mph - N/A   Clear
6:53 AM 42.1 °F 38.4 °F 28.0 °F 58% 30.30 in 10.0 mi East 5.8 mph - N/A   Clear
7:53 AM 44.1 °F 39.5 °F 28.9 °F 55% 30.31 in 10.0 mi ESE 8.1 mph - N/A   Clear
8:53 AM 48.9 °F - 28.9 °F 46% 30.34 in 10.0 mi SE 11.5 mph - N/A   Clear
9:53 AM 55.9 °F - 27.0 °F 33% 30.37 in 10.0 mi SE 6.9 mph - N/A   Clear
10:53 AM 59.0 °F - 24.1 °F 26% 30.36 in 10.0 mi ESE 9.2 mph - N/A   Clear
11:53 AM 61.0 °F - 24.1 °F 24% 30.33 in 10.0 mi SE 10.4 mph 16.1 mph N/A   Clear
12:53 PM 64.0 °F - 26.1 °F 24% 30.29 in 10.0 mi SE 10.4 mph - N/A   Clear
1:53 PM 64.9 °F - 24.1 °F 21% 30.26 in 10.0 mi Variable 4.6 mph - N/A   Clear
2:53 PM 66.9 °F - 26.1 °F 21% 30.22 in 10.0 mi South 6.9 mph 17.3 mph N/A   Clear
3:53 PM 68.0 °F - 27.0 °F 21% 30.20 in 10.0 mi SSW 9.2 mph 17.3 mph N/A   Clear
4:53 PM 69.1 °F - 28.9 °F 22% 30.19 in 10.0 mi SSW 9.2 mph 16.1 mph N/A   Clear
5:53 PM 66.9 °F - 30.0 °F 25% 30.18 in 10.0 mi WSW 9.2 mph - N/A   Clear
6:53 PM 63.0 °F - 33.1 °F 33% 30.19 in 10.0 mi SW 5.8 mph - N/A   Scattered Clouds
7:53 PM 61.0 °F - 37.0 °F 41% 30.20 in 9.0 mi WSW 11.5 mph - N/A   Clear
8:53 PM 57.9 °F - 37.9 °F 47% 30.21 in 10.0 mi SW 10.4 mph - N/A   Clear
9:53 PM 54.0 °F - 39.0 °F 57% 30.22 in 10.0 mi WSW 8.1 mph - N/A   Clear
10:53 PM 52.0 °F - 41.0 °F 66% 30.21 in 10.0 mi SSW 6.9 mph - N/A   Clear
11:53 PM 48.9 °F - 42.1 °F 77% 30.22 in 10.0 mi Calm Calm - N/A   Clear